TimeCDT,TemperatureF,Dew PointF,Humidity,Sea Level PressureIn,VisibilityMPH,Wind Direction,Wind SpeedMPH,Gust SpeedMPH,PrecipitationIn,Events,Conditions,WindDirDegrees,DateUTC
12:52 AM,59.0,55.9,90,30.04,6.0,Calm,Calm,-,N/A,,Clear,0,2013-10-11 05:52:00
1:52 AM,57.0,55.0,93,30.05,2.5,Calm,Calm,-,N/A,,Clear,0,2013-10-11 06:52:00
2:12 AM,57.2,55.4,94,30.05,3.0,Calm,Calm,-,N/A,,Clear,0,2013-10-11 07:12:00
2:23 AM,57.2,55.4,94,30.05,2.5,Calm,Calm,-,N/A,,Clear,0,2013-10-11 07:23:00
2:30 AM,57.2,55.4,94,30.05,4.0,Calm,Calm,-,N/A,,Clear,0,2013-10-11 07:30:00
2:52 AM,55.9,55.0,97,30.04,1.0,Calm,Calm,-,N/A,,Clear,0,2013-10-11 07:52:00
3:17 AM,55.4,53.6,94,30.05,0.5,Calm,Calm,-,N/A,Fog,Fog,0,2013-10-11 08:17:00
3:52 AM,55.0,54.0,96,30.05,1.0,Calm,Calm,-,N/A,,Clear,0,2013-10-11 08:52:00
4:14 AM,55.4,53.6,94,30.05,2.5,East,3.5,-,N/A,,Clear,80,2013-10-11 09:14:00
4:30 AM,53.6,53.6,100,30.06,3.0,East,3.5,-,N/A,,Clear,90,2013-10-11 09:30:00
4:43 AM,55.4,53.6,94,30.06,2.0,Calm,Calm,-,N/A,,Clear,0,2013-10-11 09:43:00
4:52 AM,54.0,53.1,97,30.05,2.5,Calm,Calm,-,N/A,,Clear,0,2013-10-11 09:52:00
5:43 AM,55.4,53.6,94,30.07,1.5,Calm,Calm,-,0.02,,Clear,0,2013-10-11 10:43:00
5:52 AM,54.0,53.1,97,30.07,2.0,Calm,Calm,-,0.02,,Clear,0,2013-10-11 10:52:00
6:06 AM,55.4,53.6,94,30.08,1.8,Calm,Calm,-,N/A,,Clear,0,2013-10-11 11:06:00
6:29 AM,53.6,51.8,94,30.08,0.2,Calm,Calm,-,N/A,Fog,Fog,0,2013-10-11 11:29:00
6:37 AM,53.6,53.6,100,30.08,0.2,Calm,Calm,-,N/A,Fog,Fog,0,2013-10-11 11:37:00
6:47 AM,53.6,51.8,94,30.08,0.2,Calm,Calm,-,N/A,Fog,Fog,0,2013-10-11 11:47:00
6:52 AM,53.1,52.0,96,30.08,0.2,Calm,Calm,-,N/A,Fog,Fog,0,2013-10-11 11:52:00
7:31 AM,53.6,53.6,100,30.09,1.8,Calm,Calm,-,N/A,,Clear,0,2013-10-11 12:31:00
7:52 AM,55.9,55.0,97,30.09,1.8,Calm,Calm,-,N/A,,Clear,0,2013-10-11 12:52:00
8:00 AM,55.4,55.4,100,30.10,2.0,Calm,Calm,-,N/A,,Clear,0,2013-10-11 13:00:00
8:32 AM,59.0,55.4,88,30.10,3.0,Calm,Calm,-,N/A,,Clear,0,2013-10-11 13:32:00
8:52 AM,61.0,55.9,83,30.10,4.0,Calm,Calm,-,N/A,,Haze,0,2013-10-11 13:52:00
9:52 AM,66.9,57.9,73,30.09,8.0,SE,3.5,-,N/A,,Clear,130,2013-10-11 14:52:00
10:52 AM,73.0,57.0,57,30.09,10.0,Calm,Calm,-,N/A,,Clear,0,2013-10-11 15:52:00
11:52 AM,75.9,57.0,52,30.07,10.0,Variable,3.5,-,N/A,,Clear,0,2013-10-11 16:52:00
12:52 PM,75.9,57.0,52,30.05,10.0,SSE,4.6,-,N/A,,Scattered Clouds,150,2013-10-11 17:52:00
1:52 PM,77.0,55.9,48,30.03,10.0,SW,5.8,-,N/A,,Mostly Cloudy,220,2013-10-11 18:52:00
2:52 PM,79.0,55.9,45,30.02,10.0,Variable,3.5,-,N/A,,Mostly Cloudy,0,2013-10-11 19:52:00
3:52 PM,78.1,55.0,45,30.01,10.0,Calm,Calm,-,N/A,,Clear,0,2013-10-11 20:52:00
4:52 PM,78.1,55.9,46,30.00,10.0,Calm,Calm,-,N/A,,Partly Cloudy,0,2013-10-11 21:52:00
5:52 PM,75.9,57.0,52,30.00,10.0,Calm,Calm,-,N/A,,Clear,0,2013-10-11 22:52:00
6:52 PM,70.0,57.9,65,30.00,10.0,Calm,Calm,-,N/A,,Clear,0,2013-10-11 23:52:00
7:52 PM,64.9,57.9,78,30.01,10.0,Calm,Calm,-,N/A,,Clear,0,2013-10-12 00:52:00
8:52 PM,62.1,59.0,90,30.01,10.0,Calm,Calm,-,N/A,,Clear,0,2013-10-12 01:52:00
9:52 PM,60.1,57.9,93,30.01,5.0,Calm,Calm,-,N/A,,Clear,0,2013-10-12 02:52:00
10:52 PM,59.0,57.0,93,30.02,6.0,East,3.5,-,N/A,,Clear,100,2013-10-12 03:52:00
11:45 PM,57.2,55.4,94,30.03,1.8,Calm,Calm,-,N/A,,Clear,0,2013-10-12 04:45:00
11:52 PM,57.9,57.0,97,30.02,1.0,Calm,Calm,-,N/A,,Clear,0,2013-10-12 04:52:00